Location: Arnolds Mill
(42.3415°N, 73.5951°W)
Time: 10:45:13
(UTC+00:00)

BlueWalker 3 - Pass Details

Date: 25 June 2024
Orbit: 480 x 492 km, 53.2° (Epoch: 13 July)

Event Time Altitude Azimuth Distance (km) Brightness Sun altitude
Rises 03:11:48 0° 300° (WNW) 2,541 6.4 -19.9°
Reaches altitude 10° 03:14:41 10° 324° (NW) 1,660 5.7 -20.2°
Maximum altitude 03:16:59 15° 2° (N) 1,359 4.9 -20.3°
Drops below altitude 10° 03:19:16 10° 40° (NE) 1,658 4.9 -20.5°
Sets 03:22:10 0° 64° (ENE) 2,537 5.6 -20.7°
